Location: Boiro
(42.6475°N, 8.8834°W)
Time: 16:36:16
(UTC+01:00)

Explorer 11/Cluster Stage 4 - Pass Details

Date: 04 December 2021
Orbit: 467 x 1255 km, 28.8° (Epoch: 21 January)

Event Time Altitude Azimuth Distance (km) Brightness Sun altitude
Rises 04:16:59 0° 233° (SW) 3,526 - -49.1°
Reaches altitude 10° 04:19:54 10° 220° (SW) 2,717 - -48.6°
Maximum altitude 04:25:10 25° 169° (SSE) 2,050 - -47.6°
Exits shadow 04:29:33 15° 127° (SE) 2,702 9.5 -46.9°
Drops below altitude 10° 04:31:08 10° 118° (ESE) 3,105 10.0 -46.6°
Sets 04:34:43 0° 107° (ESE) 4,141 10.9 -45.9°
